Flag for Rwanda Weather past 2 weeks in Kigali, Rwanda

Now
68 °F

Partly cloudy.


Feels Like: 68 °F
Forecast: 63 / 84 °F
Wind: 3 mph from South

Location: Kigali Airport

Current Time: Jan 25, 2015 at 6:40:17 PM

Latest Report: Jan 25, 2015 at 6:30 PM


Visibility: N/A

Pressure: 30.07 "Hg

Humidity: 88%

Dew point: 64 °F

Location of KigaliLocation

Historic Weather in Kigali — Graph

°F

Kigali temperature yesterday

Maximum temperature yesterday: 75 °F (at 11:00 AM)
Minimum temperature yesterday: 61 °F (at 11:00 PM)
Average temperature yesterday: 67 °F

Past Weeks' High & Low Weather Summary

 TemperatureHumidityPressure
High88 °F (Jan 14, 1:00 PM)100% (Jan 10, 11:30 PM)30.24 "Hg (Jan 10, 11:30 PM)
Low59 °F (Jan 23, 3:30 AM)29% (Jan 17, 2:30 PM)29.98 "Hg (Jan 17, 3:00 PM)
Average71 °F77%30.11 "Hg
* Reported Jan 10 5:00 PM — Jan 25 5:30 PM, Kigali, Weather by CustomWeather, © 2014

Note: Actual official high and low records may vary slightly from our data, if they occured in-between our weather recording intervals... More about our weather records

Advertising

Kigali weather history for previous 24 hours

 ConditionsComfort  
Time TempWeatherWind HumidityBarometerVisibility
5:30 PM
Jan 25
73 °FScattered clouds.No wind74%30.07 "HgN/A
5:00 PM75 °FScattered clouds.No wind69%30.07 "HgN/A
4:00 PM72 °FPartly sunny.No wind78%30.07 "HgN/A
3:30 PM72 °FPartly sunny.No wind78%30.04 "HgN/A
3:00 PM72 °FPartly sunny.3 mph78%30.07 "HgN/A
2:30 PM72 °FPartly sunny.3 mph78%30.09 "HgN/A
1:30 PM72 °FPartly sunny.7 mph78%30.09 "HgN/A
1:00 PM72 °FPartly sunny.8 mph78%30.12 "Hg4 mi
12:30 PM72 °FBroken clouds.12 mph78%30.12 "HgN/A
12:00 PM73 °FPartly sunny.9 mph83%30.12 "HgN/A
11:30 AM73 °FScattered clouds.No wind78%30.15 "HgN/A
11:00 AM73 °FScattered clouds.No wind78%30.15 "Hg6 mi
10:30 AM72 °FScattered clouds.No wind83%30.15 "Hg6 mi
10:00 AM68 °FScattered clouds.No wind100%30.15 "Hg4 mi
9:30 AM64 °FScattered clouds.No wind100%30.15 "Hg4 mi
9:00 AM63 °FFog.No wind100%30.15 "Hg2 mi
8:00 AM61 °FFog.No wind100%30.15 "Hg0 mi
7:30 AM59 °FFog.No wind100%30.12 "Hg0 mi
7:00 AM61 °FFog.No wind100%30.12 "Hg0 mi
4:00 AM59 °FFog.No wind100%30.07 "Hg0 mi
3:00 AM59 °FFog.No wind100%30.04 "Hg0 mi
2:00 AM61 °FFog.No wind100%30.07 "Hg0 mi
1:30 AM61 °FPassing clouds.No wind100%30.07 "Hg4 mi
12:30 AM61 °FSnow. Fog.3 mph100%30.09 "Hg4 mi
12:00 AM61 °FCool.3 mph100%30.09 "HgN/A
11:30 PM
Jan 24
61 °FCool.3 mph100%30.12 "HgN/A
11:00 PM61 °FPassing clouds.3 mph100%30.12 "HgN/A
10:30 PM63 °FPassing clouds.3 mph100%30.09 "HgN/A
10:00 PM63 °FPassing clouds.No wind100%30.12 "HgN/A
9:30 PM63 °FPassing clouds.No wind100%30.12 "HgN/A
9:00 PM63 °FPassing clouds.No wind100%30.12 "HgN/A
8:30 PM63 °FPassing clouds.5 mph100%30.09 "HgN/A
8:00 PM64 °FPassing clouds.3 mph100%30.09 "HgN/A
7:30 PM64 °FPassing clouds.3 mph100%30.07 "HgN/A
7:00 PM64 °FPassing clouds.3 mph100%30.07 "HgN/A
6:30 PM66 °FPartly cloudy.3 mph100%30.07 "HgN/A
6:00 PM66 °FMore clouds than sun.3 mph100%30.04 "HgN/A
Weather by CustomWeather, © 2014

See weather overviewHow to use our weather pages